Time,TemperatureF,DewpointF,PressureIn,WindDirection,WindDirectionDegrees,WindSpeedMPH,WindSpeedGustMPH,Humidity,HourlyPrecipIn,Conditions,Clouds,dailyrainin,SoftwareType,DateUTC
2013-06-17 00:00:00,64.1,61.1,29.70,NNW,332,3.0,3.0,90,0.00,,,0.01,Wunderground v.1.15,2013-06-17 04:00:00,
2013-06-17 00:05:00,64.0,60.4,29.71,NW,322,3.0,3.0,88,0.00,,,0.00,Wunderground v.1.15,2013-06-17 04:05:00,
2013-06-17 00:10:00,64.0,60.4,29.71,NW,322,2.0,2.0,88,0.00,,,0.00,Wunderground v.1.15,2013-06-17 04:10:00,
2013-06-17 00:15:00,63.8,60.2,29.71,NW,322,1.0,2.0,88,0.00,,,0.00,Wunderground v.1.15,2013-06-17 04:15:00,
2013-06-17 00:20:00,63.5,59.9,29.71,NW,322,0.0,0.0,88,0.00,,,0.00,Wunderground v.1.15,2013-06-17 04:20:00,
2013-06-17 00:25:00,62.9,59.3,29.71,NW,322,0.0,0.0,88,0.00,,,0.00,Wunderground v.1.15,2013-06-17 04:25:00,
2013-06-17 00:30:00,62.5,59.2,29.72,NW,322,0.0,0.0,89,0.00,,,0.00,Wunderground v.1.15,2013-06-17 04:30:00,
2013-06-17 00:35:00,62.1,59.1,29.72,NW,322,0.0,0.0,90,0.00,,,0.00,Wunderground v.1.15,2013-06-17 04:35:00,
2013-06-17 00:45:00,61.6,58.9,29.72,NW,322,0.0,0.0,91,0.00,,,0.00,Wunderground v.1.15,2013-06-17 04:45:00,
2013-06-17 00:50:00,61.5,58.8,29.72,NW,322,0.0,2.0,91,0.00,,,0.00,Wunderground v.1.15,2013-06-17 04:50:00,
2013-06-17 00:55:00,61.4,58.7,29.72,NW,322,1.0,2.0,91,0.00,,,0.00,Wunderground v.1.15,2013-06-17 04:55:00,
2013-06-17 01:00:00,61.5,58.8,29.72,NW,322,1.0,1.0,91,0.00,,,0.00,Wunderground v.1.15,2013-06-17 05:00:00,
2013-06-17 01:05:00,61.4,58.7,29.72,NW,322,1.0,1.0,91,0.00,,,0.00,Wunderground v.1.15,2013-06-17 05:05:00,
2013-06-17 01:15:00,61.3,58.7,29.73,NW,322,0.0,1.0,91,0.00,,,0.00,Wunderground v.1.15,2013-06-17 05:15:00,
2013-06-17 01:25:00,61.0,58.7,29.72,NW,322,0.0,0.0,92,0.00,,,0.00,Wunderground v.1.15,2013-06-17 05:25:00,
2013-06-17 01:30:00,61.1,58.8,29.72,NW,322,0.0,1.0,92,0.00,,,0.00,Wunderground v.1.15,2013-06-17 05:30:00,
2013-06-17 01:35:00,61.1,58.5,29.72,NW,322,0.0,1.0,91,0.00,,,0.00,Wunderground v.1.15,2013-06-17 05:35:00,
2013-06-17 01:40:00,61.1,58.5,29.72,NW,322,0.0,0.0,91,0.00,,,0.00,Wunderground v.1.15,2013-06-17 05:40:00,
2013-06-17 01:45:00,61.1,58.5,29.72,NW,322,0.0,0.0,91,0.00,,,0.00,Wunderground v.1.15,2013-06-17 05:45:00,
2013-06-17 01:55:00,60.9,58.3,29.73,NW,322,0.0,1.0,91,0.00,,,0.00,Wunderground v.1.15,2013-06-17 05:55:00,
2013-06-17 02:00:00,60.9,58.3,29.73,NW,322,0.0,0.0,91,0.00,,,0.00,Wunderground v.1.15,2013-06-17 06:00:00,
2013-06-17 02:05:00,60.9,58.3,29.72,NW,322,0.0,2.0,91,0.00,,,0.00,Wunderground v.1.15,2013-06-17 06:05:00,
2013-06-17 02:10:00,61.0,58.0,29.73,NW,324,1.0,2.0,90,0.00,,,0.00,Wunderground v.1.15,2013-06-17 06:10:00,
2013-06-17 02:20:00,60.9,57.9,29.73,NW,324,1.0,1.0,90,0.00,,,0.00,Wunderground v.1.15,2013-06-17 06:20:00,
2013-06-17 02:30:00,60.8,57.8,29.73,NW,324,0.0,1.0,90,0.00,,,0.00,Wunderground v.1.15,2013-06-17 06:30:00,
2013-06-17 02:35:00,60.7,57.7,29.73,NW,324,0.0,1.0,90,0.00,,,0.00,Wunderground v.1.15,2013-06-17 06:35:00,
2013-06-17 02:40:00,60.7,57.7,29.73,NW,324,1.0,1.0,90,0.00,,,0.00,Wunderground v.1.15,2013-06-17 06:40:00,
2013-06-17 02:45:00,60.7,57.7,29.73,NW,324,1.0,1.0,90,0.00,,,0.00,Wunderground v.1.15,2013-06-17 06:45:00,
2013-06-17 02:50:00,60.7,58.1,29.73,NW,324,0.0,0.0,91,0.00,,,0.00,Wunderground v.1.15,2013-06-17 06:50:00,
2013-06-17 03:00:00,60.7,58.1,29.73,NW,324,0.0,0.0,91,0.00,,,0.00,Wunderground v.1.15,2013-06-17 07:00:00,
2013-06-17 03:05:00,60.7,58.1,29.73,NW,324,0.0,1.0,91,0.00,,,0.00,Wunderground v.1.15,2013-06-17 07:05:00,
2013-06-17 03:10:00,60.7,58.1,29.73,NW,324,0.0,0.0,91,0.00,,,0.00,Wunderground v.1.15,2013-06-17 07:10:00,
2013-06-17 03:15:00,60.6,58.0,29.73,NW,324,0.0,0.0,91,0.00,,,0.00,Wunderground v.1.15,2013-06-17 07:15:00,
2013-06-17 03:20:00,60.4,57.8,29.73,NW,324,0.0,0.0,91,0.00,,,0.00,Wunderground v.1.15,2013-06-17 07:20:00,
2013-06-17 03:30:00,60.2,57.6,29.73,NW,324,0.0,0.0,91,0.00,,,0.00,Wunderground v.1.15,2013-06-17 07:30:00,
2013-06-17 03:40:00,60.0,57.4,29.73,NW,324,1.0,2.0,91,0.00,,,0.00,Wunderground v.1.15,2013-06-17 07:40:00,
2013-06-17 03:45:00,59.9,57.6,29.73,NW,324,1.0,2.0,92,0.00,,,0.00,Wunderground v.1.15,2013-06-17 07:45:00,
2013-06-17 03:50:00,59.7,57.4,29.73,NW,324,1.0,1.0,92,0.00,,,0.00,Wunderground v.1.15,2013-06-17 07:50:00,
2013-06-17 03:55:00,59.6,57.3,29.73,NW,324,0.0,1.0,92,0.00,,,0.00,Wunderground v.1.15,2013-06-17 07:55:00,
2013-06-17 04:00:00,59.4,57.1,29.74,NW,324,0.0,0.0,92,0.00,,,0.00,Wunderground v.1.15,2013-06-17 08:00:00,
2013-06-17 04:10:00,59.1,57.1,29.75,NW,324,0.0,0.0,93,0.00,,,0.00,Wunderground v.1.15,2013-06-17 08:10:00,
2013-06-17 04:15:00,58.9,56.9,29.75,NW,324,0.0,0.0,93,0.00,,,0.00,Wunderground v.1.15,2013-06-17 08:15:00,
2013-06-17 04:20:00,58.7,56.7,29.75,NW,324,1.0,1.0,93,0.00,,,0.00,Wunderground v.1.15,2013-06-17 08:20:00,
2013-06-17 04:25:00,58.8,56.8,29.75,NW,324,1.0,1.0,93,0.00,,,0.00,Wunderground v.1.15,2013-06-17 08:25:00,
2013-06-17 04:35:00,58.9,56.9,29.74,NW,324,0.0,0.0,93,0.00,,,0.00,Wunderground v.1.15,2013-06-17 08:35:00,
2013-06-17 04:40:00,59.0,57.0,29.74,NW,324,0.0,0.0,93,0.00,,,0.00,Wunderground v.1.15,2013-06-17 08:40:00,
2013-06-17 04:50:00,58.9,56.9,29.74,NW,324,0.0,0.0,93,0.00,,,0.00,Wunderground v.1.15,2013-06-17 08:50:00,
2013-06-17 04:55:00,58.9,56.9,29.74,NW,323,0.0,0.0,93,0.00,,,0.00,Wunderground v.1.15,2013-06-17 08:55:00,
2013-06-17 05:00:00,58.8,56.8,29.74,NW,304,0.0,1.0,93,0.00,,,0.00,Wunderground v.1.15,2013-06-17 09:00:00,
2013-06-17 05:10:00,58.8,56.8,29.75,WNW,284,0.0,0.0,93,0.00,,,0.00,Wunderground v.1.15,2013-06-17 09:10:00,
2013-06-17 05:15:00,58.8,56.8,29.75,WNW,284,0.0,0.0,93,0.00,,,0.00,Wunderground v.1.15,2013-06-17 09:15:00,
2013-06-17 05:20:00,58.7,56.7,29.76,WSW,253,0.0,0.0,93,0.00,,,0.00,Wunderground v.1.15,2013-06-17 09:20:00,
2013-06-17 05:25:00,58.6,56.6,29.76,SSW,194,0.0,0.0,93,0.00,,,0.00,Wunderground v.1.15,2013-06-17 09:25:00,
2013-06-17 05:30:00,58.6,56.6,29.76,SSW,194,0.0,0.0,93,0.00,,,0.00,Wunderground v.1.15,2013-06-17 09:30:00,
2013-06-17 05:35:00,58.6,56.6,29.76,SSW,212,0.0,0.0,93,0.00,,,0.00,Wunderground v.1.15,2013-06-17 09:35:00,
2013-06-17 05:45:00,58.8,57.1,29.76,WSW,250,1.0,1.0,94,0.00,,,0.00,Wunderground v.1.15,2013-06-17 09:45:00,
2013-06-17 05:55:00,59.8,57.5,29.75,ESE,118,0.0,1.0,92,0.00,,,0.00,Wunderground v.1.15,2013-06-17 09:55:00,
2013-06-17 06:00:00,60.4,57.8,29.76,SE,138,1.0,1.0,91,0.00,,,0.00,Wunderground v.1.15,2013-06-17 10:00:00,
2013-06-17 06:05:00,60.7,57.7,29.76,SW,230,1.0,1.0,90,0.00,,,0.00,Wunderground v.1.15,2013-06-17 10:05:00,
2013-06-17 06:10:00,60.8,57.5,29.76,SW,230,0.0,0.0,89,0.00,,,0.00,Wunderground v.1.15,2013-06-17 10:10:00,
2013-06-17 06:15:00,60.9,57.6,29.76,SW,230,0.0,0.0,89,0.00,,,0.00,Wunderground v.1.15,2013-06-17 10:15:00,
2013-06-17 06:20:00,61.5,57.9,29.76,SW,229,0.0,0.0,88,0.00,,,0.00,Wunderground v.1.15,2013-06-17 10:20:00,
2013-06-17 06:25:00,62.2,58.3,29.76,SW,229,0.0,0.0,87,0.00,,,0.00,Wunderground v.1.15,2013-06-17 10:25:00,
2013-06-17 06:30:00,63.0,59.1,29.76,SW,229,0.0,0.0,87,0.00,,,0.00,Wunderground v.1.15,2013-06-17 10:30:00,
2013-06-17 06:35:00,63.8,59.2,29.76,SW,229,0.0,0.0,85,0.00,,,0.00,Wunderground v.1.15,2013-06-17 10:35:00,
2013-06-17 06:40:00,64.7,60.1,29.77,NE,43,0.0,0.0,85,0.00,,,0.00,Wunderground v.1.15,2013-06-17 10:40:00,
2013-06-17 06:50:00,65.8,59.8,29.77,SSW,192,0.0,0.0,81,0.00,,,0.00,Wunderground v.1.15,2013-06-17 10:50:00,
2013-06-17 06:55:00,65.8,59.5,29.77,ESE,114,1.0,3.0,80,0.00,,,0.00,Wunderground v.1.15,2013-06-17 10:55:00,
2013-06-17 07:00:00,65.3,59.0,29.77,ESE,103,2.0,3.0,80,0.00,,,0.00,Wunderground v.1.15,2013-06-17 11:00:00,
2013-06-17 07:05:00,64.9,58.9,29.78,ESE,117,2.0,3.0,81,0.00,,,0.00,Wunderground v.1.15,2013-06-17 11:05:00,
2013-06-17 07:10:00,64.6,58.6,29.77,ESE,116,2.0,2.0,81,0.00,,,0.00,Wunderground v.1.15,2013-06-17 11:10:00,
2013-06-17 07:15:00,64.4,58.8,29.77,ESE,109,3.0,3.0,82,0.00,,,0.00,Wunderground v.1.15,2013-06-17 11:15:00,
2013-06-17 07:20:00,64.1,58.5,29.78,ESE,109,3.0,3.0,82,0.00,,,0.00,Wunderground v.1.15,2013-06-17 11:20:00,
2013-06-17 07:30:00,64.1,58.5,29.78,East,100,2.0,2.0,82,0.00,,,0.00,Wunderground v.1.15,2013-06-17 11:30:00,
2013-06-17 07:35:00,64.1,58.5,29.78,ESE,106,2.0,3.0,82,0.00,,,0.00,Wunderground v.1.15,2013-06-17 11:35:00,
2013-06-17 07:40:00,64.0,58.7,29.78,ESE,106,3.0,7.0,83,0.00,,,0.00,Wunderground v.1.15,2013-06-17 11:40:00,
2013-06-17 07:45:00,63.9,58.6,29.79,ESE,106,3.0,7.0,83,0.00,,,0.00,Wunderground v.1.15,2013-06-17 11:45:00,
2013-06-17 07:50:00,64.0,58.4,29.79,ESE,107,3.0,3.0,82,0.00,,,0.00,Wunderground v.1.15,2013-06-17 11:50:00,
2013-06-17 07:55:00,64.3,59.0,29.79,ESE,107,2.0,4.0,83,0.00,,,0.00,Wunderground v.1.15,2013-06-17 11:55:00,
2013-06-17 08:05:00,64.4,59.5,29.79,ESE,109,3.0,3.0,84,0.00,,,0.00,Wunderground v.1.15,2013-06-17 12:05:00,
2013-06-17 08:15:00,64.7,59.4,29.79,ESE,108,3.0,3.0,83,0.00,,,0.00,Wunderground v.1.15,2013-06-17 12:15:00,
2013-06-17 08:20:00,64.8,59.9,29.79,ESE,105,3.0,3.0,84,0.00,,,0.00,Wunderground v.1.15,2013-06-17 12:20:00,
2013-06-17 08:25:00,65.1,59.5,29.79,ESE,105,2.0,3.0,82,0.00,,,0.00,Wunderground v.1.15,2013-06-17 12:25:00,
2013-06-17 08:30:00,65.2,59.2,29.78,ESE,105,2.0,3.0,81,0.00,,,0.00,Wunderground v.1.15,2013-06-17 12:30:00,
2013-06-17 08:40:00,65.2,59.6,29.78,ESE,108,2.0,2.0,82,0.00,,,0.00,Wunderground v.1.15,2013-06-17 12:40:00,
2013-06-17 08:45:00,65.4,59.8,29.78,ESE,108,2.0,2.0,82,0.00,,,0.00,Wunderground v.1.15,2013-06-17 12:45:00,
2013-06-17 08:50:00,65.5,59.9,29.78,ESE,113,2.0,2.0,82,0.00,,,0.00,Wunderground v.1.15,2013-06-17 12:50:00,
2013-06-17 08:55:00,65.6,60.0,29.78,ESE,113,2.0,2.0,82,0.00,,,0.00,Wunderground v.1.15,2013-06-17 12:55:00,
2013-06-17 09:00:00,65.8,59.5,29.79,ESE,113,2.0,2.0,80,0.00,,,0.00,Wunderground v.1.15,2013-06-17 13:00:00,
2013-06-17 09:05:00,66.1,60.4,29.78,ESE,113,1.0,2.0,82,0.00,,,0.00,Wunderground v.1.15,2013-06-17 13:05:00,
2013-06-17 09:10:00,66.4,60.7,29.78,East,88,1.0,1.0,82,0.00,,,0.00,Wunderground v.1.15,2013-06-17 13:10:00,
2013-06-17 09:15:00,66.6,60.6,29.78,East,93,1.0,1.0,81,0.00,,,0.00,Wunderground v.1.15,2013-06-17 13:15:00,
2013-06-17 09:25:00,67.0,61.3,29.78,East,93,2.0,2.0,82,0.00,,,0.00,Wunderground v.1.15,2013-06-17 13:25:00,
2013-06-17 09:30:00,66.9,60.9,29.78,ESE,105,2.0,2.0,81,0.00,,,0.00,Wunderground v.1.15,2013-06-17 13:30:00,
2013-06-17 09:35:00,67.0,61.0,29.77,ESE,107,2.0,3.0,81,0.00,,,0.00,Wunderground v.1.15,2013-06-17 13:35:00,
2013-06-17 09:45:00,67.5,60.8,29.77,NNW,327,1.0,2.0,79,0.00,,,0.00,Wunderground v.1.15,2013-06-17 13:45:00,
2013-06-17 09:50:00,68.3,61.2,29.77,NW,307,2.0,4.0,78,0.00,,,0.00,Wunderground v.1.15,2013-06-17 13:50:00,
2013-06-17 09:55:00,69.1,61.2,29.77,WNW,303,3.0,7.0,76,0.00,,,0.00,Wunderground v.1.15,2013-06-17 13:55:00,
2013-06-17 10:00:00,69.8,61.9,29.77,NW,315,5.0,5.0,76,0.00,,,0.00,Wunderground v.1.15,2013-06-17 14:00:00,
2013-06-17 10:05:00,70.0,61.7,29.77,ENE,57,3.0,5.0,75,0.00,,,0.00,Wunderground v.1.15,2013-06-17 14:05:00,
2013-06-17 10:10:00,70.1,61.4,29.77,SE,134,2.0,2.0,74,0.00,,,0.00,Wunderground v.1.15,2013-06-17 14:10:00,
2013-06-17 10:15:00,70.3,60.8,29.76,WNW,300,3.0,4.0,72,0.00,,,0.00,Wunderground v.1.15,2013-06-17 14:15:00,
2013-06-17 10:20:00,71.0,61.1,29.76,NW,307,3.0,6.0,71,0.00,,,0.00,Wunderground v.1.15,2013-06-17 14:20:00,
2013-06-17 10:25:00,71.8,61.5,29.76,NW,309,3.0,6.0,70,0.00,,,0.00,Wunderground v.1.15,2013-06-17 14:25:00,
2013-06-17 10:35:00,72.6,60.2,29.77,NW,322,4.0,5.0,65,0.00,,,0.00,Wunderground v.1.15,2013-06-17 14:35:00,
2013-06-17 10:40:00,73.2,60.7,29.77,WNW,302,5.0,6.0,65,0.00,,,0.00,Wunderground v.1.15,2013-06-17 14:40:00,
2013-06-17 10:45:00,73.2,60.3,29.77,NW,315,5.0,6.0,64,0.00,,,0.00,Wunderground v.1.15,2013-06-17 14:45:00,
2013-06-17 10:55:00,73.8,60.9,29.76,NW,310,5.0,11.0,64,0.00,,,0.00,Wunderground v.1.15,2013-06-17 14:55:00,
2013-06-17 11:05:00,74.0,59.7,29.76,SSE,153,5.0,5.0,61,0.00,,,0.00,Wunderground v.1.15,2013-06-17 15:05:00,
2013-06-17 11:10:00,74.2,60.3,29.76,NNW,329,4.0,5.0,62,0.00,,,0.00,Wunderground v.1.15,2013-06-17 15:10:00,
2013-06-17 11:15:00,74.0,60.2,29.76,NW,313,5.0,6.0,62,0.00,,,0.00,Wunderground v.1.15,2013-06-17 15:15:00,
2013-06-17 11:25:00,74.3,59.0,29.75,WNW,296,5.0,6.0,59,0.00,,,0.00,Wunderground v.1.15,2013-06-17 15:25:00,
2013-06-17 11:30:00,74.4,58.7,29.75,WSW,255,6.0,6.0,58,0.00,,,0.00,Wunderground v.1.15,2013-06-17 15:30:00,
2013-06-17 11:40:00,74.5,59.7,29.75,WNW,299,4.0,8.0,60,0.00,,,0.00,Wunderground v.1.15,2013-06-17 15:40:00,
2013-06-17 11:45:00,74.1,58.9,29.75,NNW,327,5.0,6.0,59,0.00,,,0.00,Wunderground v.1.15,2013-06-17 15:45:00,
2013-06-17 11:50:00,74.7,58.9,29.75,NNW,329,4.0,6.0,58,0.00,,,0.00,Wunderground v.1.15,2013-06-17 15:50:00,
2013-06-17 12:00:00,74.5,59.7,29.75,NW,308,5.0,5.0,60,0.00,,,0.00,Wunderground v.1.15,2013-06-17 16:00:00,
2013-06-17 12:05:00,74.4,60.1,29.75,NNW,329,4.0,5.0,61,0.00,,,0.00,Wunderground v.1.15,2013-06-17 16:05:00,
2013-06-17 12:10:00,74.7,58.5,29.75,NNW,331,4.0,4.0,57,0.00,,,0.00,Wunderground v.1.15,2013-06-17 16:10:00,
2013-06-17 12:15:00,75.2,57.9,29.75,NW,323,4.0,4.0,55,0.00,,,0.00,Wunderground v.1.15,2013-06-17 16:15:00,
2013-06-17 12:20:00,75.9,58.1,29.75,NW,308,4.0,9.0,54,0.00,,,0.00,Wunderground v.1.15,2013-06-17 16:20:00,
2013-06-17 12:25:00,76.4,57.5,29.75,WNW,288,5.0,9.0,52,0.00,,,0.00,Wunderground v.1.15,2013-06-17 16:25:00,
2013-06-17 12:35:00,76.5,57.6,29.74,West,264,6.0,6.0,52,0.00,,,0.00,Wunderground v.1.15,2013-06-17 16:35:00,
2013-06-17 12:45:00,76.1,58.2,29.74,NW,307,7.0,7.0,54,0.00,,,0.00,Wunderground v.1.15,2013-06-17 16:45:00,
2013-06-17 12:50:00,76.2,58.3,29.74,NW,313,7.0,8.0,54,0.00,,,0.00,Wunderground v.1.15,2013-06-17 16:50:00,
2013-06-17 12:55:00,76.0,58.7,29.74,NW,305,7.0,8.0,55,0.00,,,0.00,Wunderground v.1.15,2013-06-17 16:55:00,
2013-06-17 13:05:00,76.2,57.3,29.74,NNW,331,6.0,6.0,52,0.00,,,0.00,Wunderground v.1.15,2013-06-17 17:05:00,
2013-06-17 13:10:00,76.6,58.7,29.73,NW,305,6.0,6.0,54,0.00,,,0.00,Wunderground v.1.15,2013-06-17 17:10:00,
2013-06-17 13:15:00,76.8,57.8,29.73,NW,320,5.0,6.0,52,0.00,,,0.00,Wunderground v.1.15,2013-06-17 17:15:00,
2013-06-17 13:20:00,76.7,58.8,29.73,NW,325,6.0,7.0,54,0.00,,,0.00,Wunderground v.1.15,2013-06-17 17:20:00,
2013-06-17 13:25:00,77.1,57.6,29.73,NW,317,7.0,7.0,51,0.00,,,0.00,Wunderground v.1.15,2013-06-17 17:25:00,
2013-06-17 13:30:00,77.6,58.0,29.73,NW,317,5.0,7.0,51,0.00,,,0.00,Wunderground v.1.15,2013-06-17 17:30:00,
2013-06-17 13:35:00,77.4,59.5,29.73,WNW,294,5.0,6.0,54,0.00,,,0.00,Wunderground v.1.15,2013-06-17 17:35:00,
2013-06-17 13:40:00,76.6,58.2,29.73,NW,304,6.0,6.0,53,0.00,,,0.00,Wunderground v.1.15,2013-06-17 17:40:00,
2013-06-17 13:45:00,77.1,57.0,29.73,NW,321,4.0,9.0,50,0.00,,,0.00,Wunderground v.1.15,2013-06-17 17:45:00,
2013-06-17 13:50:00,77.1,58.1,29.73,WNW,300,4.0,9.0,52,0.00,,,0.00,Wunderground v.1.15,2013-06-17 17:50:00,
2013-06-17 14:00:00,77.7,57.0,29.73,NW,326,4.0,5.0,49,0.00,,,0.00,Wunderground v.1.15,2013-06-17 18:00:00,
2013-06-17 14:05:00,77.9,57.2,29.72,NW,314,4.0,5.0,49,0.00,,,0.00,Wunderground v.1.15,2013-06-17 18:05:00,
2013-06-17 14:15:00,78.1,57.4,29.73,NNW,344,3.0,4.0,49,0.00,,,0.00,Wunderground v.1.15,2013-06-17 18:15:00,
2013-06-17 14:20:00,78.3,57.6,29.73,NW,316,3.0,3.0,49,0.00,,,0.00,Wunderground v.1.15,2013-06-17 18:20:00,
2013-06-17 14:25:00,78.3,57.0,29.73,West,267,4.0,4.0,48,0.00,,,0.00,Wunderground v.1.15,2013-06-17 18:25:00,
2013-06-17 14:30:00,78.1,57.4,29.73,NW,317,4.0,5.0,49,0.00,,,0.00,Wunderground v.1.15,2013-06-17 18:30:00,
2013-06-17 14:35:00,77.9,56.6,29.73,NW,324,4.0,5.0,48,0.00,,,0.00,Wunderground v.1.15,2013-06-17 18:35:00,
2013-06-17 14:40:00,77.8,57.7,29.73,NNW,329,3.0,6.0,50,0.00,,,0.00,Wunderground v.1.15,2013-06-17 18:40:00,
2013-06-17 14:45:00,77.4,57.3,29.74,NW,304,3.0,6.0,50,0.00,,,0.00,Wunderground v.1.15,2013-06-17 18:45:00,
2013-06-17 14:50:00,77.2,57.7,29.74,WNW,296,3.0,3.0,51,0.00,,,0.00,Wunderground v.1.15,2013-06-17 18:50:00,
2013-06-17 14:55:00,77.0,57.5,29.74,NW,311,2.0,3.0,51,0.00,,,0.00,Wunderground v.1.15,2013-06-17 18:55:00,
2013-06-17 15:00:00,76.9,59.5,29.75,NW,311,1.0,1.0,55,0.00,,,0.00,Wunderground v.1.15,2013-06-17 19:00:00,
2013-06-17 15:10:00,75.7,61.8,29.75,NW,319,1.0,1.0,62,0.00,,,0.00,Wunderground v.1.15,2013-06-17 19:10:00,
2013-06-17 15:15:00,74.8,60.9,29.75,WNW,292,1.0,5.0,62,0.00,,,0.01,Wunderground v.1.15,2013-06-17 19:15:00,
2013-06-17 15:25:00,73.1,62.3,29.75,NW,306,1.0,1.0,69,0.05,,,0.02,Wunderground v.1.15,2013-06-17 19:25:00,
2013-06-17 15:30:00,72.1,63.0,29.76,WSW,249,0.0,0.0,73,0.05,,,0.02,Wunderground v.1.15,2013-06-17 19:30:00,
2013-06-17 15:35:00,71.2,63.6,29.76,WSW,249,0.0,1.0,77,0.09,,,0.03,Wunderground v.1.15,2013-06-17 19:35:00,
2013-06-17 15:40:00,70.0,62.5,29.76,NW,324,0.0,2.0,77,0.07,,,0.03,Wunderground v.1.15,2013-06-17 19:40:00,
2013-06-17 15:45:00,69.1,62.3,29.77,North,360,0.0,2.0,79,0.06,,,0.04,Wunderground v.1.15,2013-06-17 19:45:00,
2013-06-17 15:55:00,67.7,60.2,29.76,NW,311,1.0,5.0,77,0.06,,,0.05,Wunderground v.1.15,2013-06-17 19:55:00,
2013-06-17 16:00:00,67.3,60.2,29.75,SE,136,2.0,2.0,78,0.06,,,0.05,Wunderground v.1.15,2013-06-17 20:00:00,
2013-06-17 16:05:00,67.0,61.0,29.76,NW,310,1.0,2.0,81,0.04,,,0.05,Wunderground v.1.15,2013-06-17 20:05:00,
2013-06-17 16:15:00,66.7,60.0,29.76,West,275,0.0,0.0,79,0.00,,,0.05,Wunderground v.1.15,2013-06-17 20:15:00,
2013-06-17 16:20:00,66.8,60.4,29.77,NW,323,0.0,2.0,80,0.00,,,0.05,Wunderground v.1.15,2013-06-17 20:20:00,
2013-06-17 16:30:00,67.3,59.5,29.77,NW,319,1.0,6.0,76,0.00,,,0.05,Wunderground v.1.15,2013-06-17 20:30:00,
2013-06-17 16:35:00,67.6,59.4,29.77,WNW,291,3.0,6.0,75,0.00,,,0.05,Wunderground v.1.15,2013-06-17 20:35:00,
2013-06-17 16:40:00,67.8,59.2,29.77,NNW,336,4.0,4.0,74,0.00,,,0.05,Wunderground v.1.15,2013-06-17 20:40:00,
2013-06-17 16:45:00,68.0,59.4,29.77,WNW,286,3.0,4.0,74,0.00,,,0.05,Wunderground v.1.15,2013-06-17 20:45:00,
2013-06-17 16:50:00,68.1,59.9,29.77,NW,321,2.0,2.0,75,0.00,,,0.05,Wunderground v.1.15,2013-06-17 20:50:00,
2013-06-17 16:55:00,68.1,59.9,29.77,NW,324,2.0,2.0,75,0.00,,,0.05,Wunderground v.1.15,2013-06-17 20:55:00,
2013-06-17 17:05:00,68.1,59.9,29.77,NNW,341,3.0,3.0,75,0.00,,,0.05,Wunderground v.1.15,2013-06-17 21:05:00,
2013-06-17 17:15:00,67.8,60.3,29.76,NW,311,4.0,4.0,77,0.00,,,0.05,Wunderground v.1.15,2013-06-17 21:15:00,
2013-06-17 17:20:00,67.8,59.2,29.76,NW,309,3.0,4.0,74,0.00,,,0.05,Wunderground v.1.15,2013-06-17 21:20:00,
2013-06-17 17:25:00,68.0,59.8,29.76,WNW,292,3.0,4.0,75,0.00,,,0.05,Wunderground v.1.15,2013-06-17 21:25:00,
2013-06-17 17:30:00,68.3,60.4,29.76,NW,306,4.0,7.0,76,0.00,,,0.05,Wunderground v.1.15,2013-06-17 21:30:00,
2013-06-17 17:35:00,68.5,59.9,29.76,NW,307,5.0,7.0,74,0.00,,,0.05,Wunderground v.1.15,2013-06-17 21:35:00,
2013-06-17 17:40:00,68.3,60.4,29.76,NNW,336,5.0,5.0,76,0.00,,,0.05,Wunderground v.1.15,2013-06-17 21:40:00,
2013-06-17 17:45:00,68.4,60.2,29.76,NNW,334,4.0,5.0,75,0.00,,,0.05,Wunderground v.1.15,2013-06-17 21:45:00,
2013-06-17 17:50:00,68.6,60.0,29.76,NNW,334,3.0,3.0,74,0.00,,,0.05,Wunderground v.1.15,2013-06-17 21:50:00,
2013-06-17 17:55:00,68.9,59.9,29.76,NNW,334,2.0,3.0,73,0.00,,,0.05,Wunderground v.1.15,2013-06-17 21:55:00,
2013-06-17 18:00:00,69.1,60.1,29.76,NNW,342,2.0,2.0,73,0.00,,,0.05,Wunderground v.1.15,2013-06-17 22:00:00,
2013-06-17 18:05:00,69.2,60.6,29.76,NNW,342,3.0,3.0,74,0.00,,,0.05,Wunderground v.1.15,2013-06-17 22:05:00,
2013-06-17 18:10:00,69.4,60.0,29.77,NNW,342,1.0,1.0,72,0.00,,,0.05,Wunderground v.1.15,2013-06-17 22:10:00,
2013-06-17 18:15:00,70.0,59.4,29.77,NNW,342,0.0,1.0,69,0.00,,,0.05,Wunderground v.1.15,2013-06-17 22:15:00,
2013-06-17 18:25:00,71.2,60.5,29.78,NNW,342,0.0,0.0,69,0.00,,,0.05,Wunderground v.1.15,2013-06-17 22:25:00,
2013-06-17 18:30:00,71.1,61.6,29.78,NNW,342,0.0,0.0,72,0.00,,,0.05,Wunderground v.1.15,2013-06-17 22:30:00,
2013-06-17 18:35:00,70.6,60.7,29.78,NNW,342,0.0,0.0,71,0.00,,,0.05,Wunderground v.1.15,2013-06-17 22:35:00,
2013-06-17 18:45:00,70.7,62.8,29.78,NNW,342,0.0,0.0,76,0.00,,,0.05,Wunderground v.1.15,2013-06-17 22:45:00,
2013-06-17 18:50:00,70.0,61.7,29.78,NNW,342,1.0,1.0,75,0.00,,,0.05,Wunderground v.1.15,2013-06-17 22:50:00,
2013-06-17 18:55:00,69.3,61.4,29.78,NNW,342,1.0,2.0,76,0.00,,,0.05,Wunderground v.1.15,2013-06-17 22:55:00,
2013-06-17 19:05:00,68.4,62.0,29.78,NNW,342,1.0,1.0,80,0.00,,,0.05,Wunderground v.1.15,2013-06-17 23:05:00,
2013-06-17 19:10:00,68.3,61.2,29.78,NNW,342,0.0,1.0,78,0.00,,,0.05,Wunderground v.1.15,2013-06-17 23:10:00,
2013-06-17 19:20:00,67.8,59.6,29.78,NNW,342,0.0,0.0,75,0.00,,,0.05,Wunderground v.1.15,2013-06-17 23:20:00,
2013-06-17 19:25:00,67.6,59.8,29.78,NNW,342,0.0,0.0,76,0.00,,,0.05,Wunderground v.1.15,2013-06-17 23:25:00,
2013-06-17 19:30:00,67.4,60.3,29.78,NNW,342,0.0,0.0,78,0.00,,,0.05,Wunderground v.1.15,2013-06-17 23:30:00,
2013-06-17 19:35:00,67.3,60.6,29.78,NNW,342,0.0,0.0,79,0.00,,,0.05,Wunderground v.1.15,2013-06-17 23:35:00,
2013-06-17 19:40:00,67.1,60.7,29.79,NNW,342,0.0,0.0,80,0.00,,,0.05,Wunderground v.1.15,2013-06-17 23:40:00,
2013-06-17 19:45:00,66.9,60.5,29.79,NNW,342,0.0,0.0,80,0.00,,,0.05,Wunderground v.1.15,2013-06-17 23:45:00,
2013-06-17 19:55:00,66.7,60.3,29.79,NNW,342,0.0,0.0,80,0.00,,,0.05,Wunderground v.1.15,2013-06-17 23:55:00,
2013-06-17 20:00:00,66.8,60.4,29.79,NNW,342,0.0,0.0,80,0.00,,,0.05,Wunderground v.1.15,2013-06-18 00:00:00,
2013-06-17 20:05:00,66.6,60.2,29.79,NNW,342,0.0,0.0,80,0.00,,,0.05,Wunderground v.1.15,2013-06-18 00:05:00,
2013-06-17 20:10:00,66.3,60.3,29.79,NNW,342,0.0,0.0,81,0.00,,,0.05,Wunderground v.1.15,2013-06-18 00:10:00,
2013-06-17 20:15:00,66.0,60.3,29.80,NNW,342,0.0,0.0,82,0.00,,,0.05,Wunderground v.1.15,2013-06-18 00:15:00,
2013-06-17 20:25:00,65.3,60.7,29.80,NNW,342,0.0,0.0,85,0.00,,,0.05,Wunderground v.1.15,2013-06-18 00:25:00,
2013-06-17 20:30:00,65.0,60.7,29.80,NNW,342,0.0,0.0,86,0.00,,,0.05,Wunderground v.1.15,2013-06-18 00:30:00,
2013-06-17 20:35:00,64.8,60.5,29.81,NNW,331,0.0,1.0,86,0.00,,,0.05,Wunderground v.1.15,2013-06-18 00:35:00,
2013-06-17 20:40:00,64.7,60.4,29.81,NNW,331,1.0,1.0,86,0.00,,,0.05,Wunderground v.1.15,2013-06-18 00:40:00,
2013-06-17 20:45:00,64.7,60.4,29.81,NNW,331,0.0,1.0,86,0.00,,,0.05,Wunderground v.1.15,2013-06-18 00:45:00,
2013-06-17 20:50:00,64.6,60.3,29.81,NNW,331,0.0,0.0,86,0.00,,,0.05,Wunderground v.1.15,2013-06-18 00:50:00,
2013-06-17 21:00:00,64.6,60.3,29.81,NNW,331,0.0,0.0,86,0.00,,,0.05,Wunderground v.1.15,2013-06-18 01:00:00,
2013-06-17 21:05:00,64.5,60.5,29.81,NNW,331,0.0,0.0,87,0.00,,,0.05,Wunderground v.1.15,2013-06-18 01:05:00,
2013-06-17 21:10:00,64.4,60.4,29.82,NNW,331,0.0,0.0,87,0.00,,,0.05,Wunderground v.1.15,2013-06-18 01:10:00,
2013-06-17 21:15:00,64.4,61.1,29.82,NNW,331,0.0,0.0,89,0.00,,,0.05,Wunderground v.1.15,2013-06-18 01:15:00,
2013-06-17 21:20:00,64.4,61.1,29.82,NNW,331,0.0,0.0,89,0.00,,,0.05,Wunderground v.1.15,2013-06-18 01:20:00,
2013-06-17 21:30:00,64.2,60.6,29.82,NNW,331,0.0,0.0,88,0.00,,,0.05,Wunderground v.1.15,2013-06-18 01:30:00,
2013-06-17 21:40:00,64.1,60.8,29.83,NNW,331,0.0,0.0,89,0.00,,,0.05,Wunderground v.1.15,2013-06-18 01:40:00,
2013-06-17 21:45:00,64.1,60.5,29.83,NNW,331,0.0,0.0,88,0.00,,,0.05,Wunderground v.1.15,2013-06-18 01:45:00,
2013-06-17 21:50:00,64.2,60.6,29.83,NNW,331,0.0,0.0,88,0.00,,,0.05,Wunderground v.1.15,2013-06-18 01:50:00,
2013-06-17 21:55:00,64.2,60.9,29.83,NNW,331,0.0,0.0,89,0.00,,,0.05,Wunderground v.1.15,2013-06-18 01:55:00,
2013-06-17 22:00:00,64.2,60.9,29.83,NNW,331,0.0,0.0,89,0.00,,,0.05,Wunderground v.1.15,2013-06-18 02:00:00,
2013-06-17 22:10:00,64.2,60.6,29.83,NNW,331,0.0,0.0,88,0.00,,,0.05,Wunderground v.1.15,2013-06-18 02:10:00,
2013-06-17 22:15:00,64.1,59.8,29.83,NNW,331,0.0,0.0,86,0.00,,,0.05,Wunderground v.1.15,2013-06-18 02:15:00,
2013-06-17 22:20:00,64.2,59.6,29.83,NNW,331,0.0,0.0,85,0.00,,,0.05,Wunderground v.1.15,2013-06-18 02:20:00,
2013-06-17 22:25:00,64.2,58.9,29.83,NNW,331,0.0,0.0,83,0.00,,,0.05,Wunderground v.1.15,2013-06-18 02:25:00,
2013-06-17 22:35:00,64.3,59.0,29.83,NNW,331,0.0,0.0,83,0.00,,,0.05,Wunderground v.1.15,2013-06-18 02:35:00,
2013-06-17 22:40:00,64.2,58.6,29.83,NNW,331,0.0,0.0,82,0.00,,,0.05,Wunderground v.1.15,2013-06-18 02:40:00,
2013-06-17 22:50:00,64.0,58.1,29.83,NNW,331,0.0,0.0,81,0.00,,,0.05,Wunderground v.1.15,2013-06-18 02:50:00,
2013-06-17 22:55:00,63.9,58.0,29.83,SW,219,0.0,0.0,81,0.00,,,0.05,Wunderground v.1.15,2013-06-18 02:55:00,
2013-06-17 23:00:00,63.9,58.0,29.83,SW,219,0.0,0.0,81,0.00,,,0.05,Wunderground v.1.15,2013-06-18 03:00:00,
2013-06-17 23:05:00,63.7,57.8,29.82,SW,219,0.0,0.0,81,0.00,,,0.05,Wunderground v.1.15,2013-06-18 03:05:00,
2013-06-17 23:15:00,63.5,57.6,29.82,SW,219,0.0,0.0,81,0.00,,,0.05,Wunderground v.1.15,2013-06-18 03:15:00,
2013-06-17 23:20:00,63.4,57.5,29.82,SW,219,0.0,0.0,81,0.00,,,0.05,Wunderground v.1.15,2013-06-18 03:20:00,
2013-06-17 23:25:00,63.4,57.5,29.83,SW,227,0.0,1.0,81,0.00,,,0.05,Wunderground v.1.15,2013-06-18 03:25:00,
2013-06-17 23:30:00,63.4,57.5,29.83,SW,227,0.0,0.0,81,0.00,,,0.05,Wunderground v.1.15,2013-06-18 03:30:00,
2013-06-17 23:35:00,63.5,57.6,29.83,SW,227,0.0,0.0,81,0.00,,,0.05,Wunderground v.1.15,2013-06-18 03:35:00,
2013-06-17 23:45:00,63.4,57.5,29.83,West,273,0.0,0.0,81,0.00,,,0.05,Wunderground v.1.15,2013-06-18 03:45:00,
2013-06-17 23:55:00,63.5,57.6,29.83,West,273,0.0,1.0,81,0.00,,,0.05,Wunderground v.1.15,2013-06-18 03:55:00,